EW4496 Weather Reports


time (UTC)temp
C
wind
direction
speed
KPH
gust
KPH
rain 1hr
cm
rain 24hr
cm
rain mn
cm
humidity
%
barometer
mb
20260903220008 25 332 3.2 14.5 0.00 0.00 0.00 55 1011.8
20260903214513 24 15 0.0 14.5 0.00 0.00 0.00 57 1011.9
20260903213028 24 33 1.6 16.1 0.00 0.00 0.00 57 1012.1
20260903211523 24 20 3.2 20.9 0.00 0.00 0.00 56 1012.2
20260903210024 24 25 3.2 16.1 0.00 0.00 0.00 55 1012.1
20260903204525 24 317 3.2 16.1 0.00 0.00 0.00 56 1012.2
20260903203023 24 329 6.4 16.1 0.00 0.00 0.00 55 1012.4
20260903201524 24 3 1.6 11.3 0.00 0.00 0.00 56 1012.3
20260903200025 24 300 3.2 9.7 0.00 0.00 0.00 56 1012.6
20260903194523 25 340 3.2 14.5 0.00 0.00 0.00 54 1012.7
20260903193038 25 6 1.6 11.3 0.00 0.00 0.00 53 1012.9
20260903191540 24 359 1.6 9.7 0.00 0.00 0.00 55 1013.1
20260903190037 23 343 1.6 11.3 0.00 0.00 0.00 57 1013.2
20260903184538 24 288 1.6 17.7 0.00 0.00 0.00 58 1013.4
20260903183111 23 219 0.0 9.7 0.00 0.00 0.00 59 1013.5
20260903181610 22 331 0.0 9.7 0.00 0.00 0.00 63 1013.7
20260903180107 21 340 0.0 9.7 0.00 0.00 0.00 65 1013.7
20260903174607 21 286 1.6 9.7 0.00 0.00 0.00 66 1013.8
20260903173109 21 349 0.0 8.0 0.00 0.00 0.00 67 1013.9
20260903171620 20 300 0.0 4.8 0.00 0.00 0.00 70 1014.0
20260903170107 20 259 0.0 6.4 0.00 0.00 0.00 71 1014.1
20260903164522 20 333 0.0 9.7 0.00 0.00 0.00 71 1014.1
20260903163022 19 335 0.0 3.2 0.00 0.00 0.00 72 1014.2
20260903161522 19 302 1.6 8.0 0.00 0.00 0.00 73 1014.3
20260903160022 18 243 1.6 6.4 0.00 0.00 0.00 74 1014.4
20260903154523 18 168 3.2 11.3 0.00 0.00 0.00 75 1014.4
20260903153022 17 210 3.2 9.7 0.00 0.00 0.00 77 1014.5
20260903151521 16 180 1.6 11.3 0.00 0.00 0.00 81 1014.6
20260903150023 16 189 0.0 9.7 0.00 0.00 0.00 82 1014.5
20260903144541 16 240 3.2 9.7 0.00 0.00 0.00 83 1014.4
20260903143059 15 217 3.2 8.0 0.00 0.00 0.00 84 1014.4
20260903141557 15 250 1.6 8.0 0.00 0.00 0.00 86 1014.3
20260903140044 14 221 0.0 4.8 0.00 0.00 0.00 87 1014.3
20260903134546 14 198 0.0 4.8 0.00 0.00 0.00 87 1014.2
20260903133043 14 204 1.6 8.0 0.00 0.00 0.00 87 1014.1
20260903131521 14 186 0.0 6.4 0.00 0.00 0.00 87 1014.2
20260903130056 14 195 1.6 8.0 0.00 0.00 0.00 87 1014.3
20260903124555 14 226 1.6 8.0 0.00 0.00 0.00 86 1014.3
20260903123056 14 259 1.6 6.4 0.00 0.00 0.00 85 1014.3
20260903121610 15 262 1.6 6.4 0.00 0.00 0.00 85 1014.2
20260903120111 15 251 0.0 6.4 0.00 0.00 0.00 85 1014.4
20260903114611 15 248 0.0 6.4 0.00 0.00 0.00 85 1014.6
20260903113111 15 255 0.0 4.8 0.00 0.00 0.00 85 1014.6
20260903111513 15 213 0.0 4.8 0.00 0.00 0.00 84 1014.7
20260903110015 15 248 0.0 4.8 0.00 0.00 0.00 84 1014.8
20260903104511 15 232 0.0 6.4 0.00 0.00 0.00 84 1014.7
20260903103011 15 228 1.6 8.0 0.00 0.00 0.00 84 1014.7
20260903101511 15 229 0.0 4.8 0.00 0.00 0.00 85 1014.7
20260903100012 15 221 0.0 4.8 0.00 0.00 0.00 85 1014.7
20260903094614 15 231 0.0 4.8 0.00 0.00 0.00 85 1014.9
20260903093115 15 211 0.0 6.4 0.00 0.00 0.00 85 1014.9
20260903091611 14 229 0.0 6.4 0.00 0.00 0.00 85 1014.9
20260903090110 14 240 1.6 8.0 0.00 0.00 0.00 85 1015.0
20260903084611 14 254 0.0 4.8 0.00 0.00 0.00 84 1015.1
20260903083111 14 255 1.6 8.0 0.00 0.00 0.00 83 1015.1
20260903081611 15 288 1.6 6.4 0.00 0.00 0.00 81 1015.0
20260903080110 15 254 1.6 8.0 0.00 0.00 0.00 80 1015.0
20260903074609 15 248 0.0 3.2 0.00 0.00 0.00 81 1015.0
20260903073110 15 244 0.0 6.4 0.00 0.00 0.00 80 1014.9
20260903071556 15 255 0.0 3.2 0.00 0.00 0.00 78 1015.0
20260903070040 16 248 0.0 0.0 0.00 0.00 0.00 75 1014.9
20260903064540 16 278 0.0 0.0 0.00 0.00 0.00 73 1014.9
20260903063107 16 283 0.0 0.0 0.00 0.00 0.00 72 1014.9
20260903061540 17 315 0.0 3.2 0.00 0.00 0.00 70 1014.9
20260903060039 17 307 0.0 6.4 0.00 0.00 0.00 68 1014.9
20260903054539 17 281 0.0 6.4 0.00 0.00 0.00 66 1014.9
20260903053110 18 283 0.0 1.6 0.00 0.00 0.00 66 1014.9
20260903051609 18 312 0.0 1.6 0.00 0.00 0.00 65 1014.9
20260903050129 18 319 0.0 0.0 0.00 0.00 0.00 65 1015.0
20260903044509 18 293 0.0 0.0 0.00 0.00 0.00 63 1015.0
20260903043039 19 293 0.0 0.0 0.00 0.00 0.00 61 1014.9
20260903041539 19 292 0.0 0.0 0.00 0.00 0.00 59 1014.7
20260903040039 20 288 0.0 3.2 0.00 0.00 0.00 57 1014.5
20260903034538 20 341 1.6 9.7 0.00 0.00 0.00 56 1014.1
20260903033024 20 335 0.0 8.0 0.00 0.00 0.00 55 1014.0
20260903031538 21 338 0.0 0.0 0.00 0.00 0.00 54 1013.9
20260903030038 21 325 0.0 8.0 0.00 0.00 0.00 53 1013.9
20260903024538 21 360 0.0 0.0 0.00 0.00 0.00 53 1014.1
20260903023042 22 352 0.0 8.0 0.00 0.00 0.00 52 1014.1
20260903021538 23 349 0.0 6.4 0.00 0.00 0.00 51 1014.0
20260903020043 24 338 0.0 9.7 0.00 0.00 0.00 50 1014.1
20260903014548 24 217 0.0 9.7 0.00 0.00 0.00 50 1014.1
20260903013038 25 328 4.8 14.5 0.00 0.00 0.00 49 1014.2
20260903011555 25 7 3.2 12.9 0.00 0.00 0.00 48 1014.2
20260903010038 25 311 1.6 12.9 0.00 0.00 0.00 49 1014.3
20260903004541 25 349 0.0 8.0 0.00 0.00 0.00 48 1014.3
20260903003009 26 344 4.8 12.9 0.00 0.00 0.00 46 1014.4
20260903001548 26 35 0.0 12.9 0.00 0.00 0.00 46 1014.5
20260903000050 26 309 3.2 12.9 0.00 0.00 0.00 46 1014.5
20260902234602 26 342 3.2 11.3 0.00 0.00 0.00 44 1014.7
20260902233102 26 328 1.6 17.7 0.00 0.00 0.00 45 1014.7
20260902231608 26 4 1.6 11.3 0.00 0.00 0.00 44 1014.8
20260902224603 26 356 0.0 11.3 0.00 0.00 0.00 47 1015.0
20260902223107 26 41 3.2 17.7 0.00 0.00 0.00 47 1015.1
20260902221602 26 314 1.6 12.9 0.00 0.00 0.00 46 1015.1